Time,TemperatureF,DewpointF,PressureIn,WindDirection,WindDirectionDegrees,WindSpeedMPH,WindSpeedGustMPH,Humidity,HourlyPrecipIn,Conditions,Clouds,dailyrainin,SoftwareType,DateUTC
2013-06-10 00:00:00,63.0,61.0,30.14,SSE,152,0.0,0.0,93,0.00,,OVC009,0.00,VWS V14.00,2013-06-10 04:00:00,
2013-06-10 00:01:00,63.0,60.6,30.14,SSE,152,0.0,0.0,92,0.00,,FEW100,0.00,VWS V14.00,2013-06-10 04:01:00,
2013-06-10 00:02:00,63.0,60.6,30.14,SSE,152,0.0,0.0,92,0.00,,FEW100,0.00,VWS V14.00,2013-06-10 04:02:00,
2013-06-10 00:03:00,63.0,60.6,30.14,SSE,152,0.0,0.0,92,0.00,,FEW100,0.00,VWS V14.00,2013-06-10 04:03:00,
2013-06-10 00:04:00,62.9,60.5,30.14,SSE,152,0.0,0.0,92,0.00,,FEW100,0.00,VWS V14.00,2013-06-10 04:04:00,
2013-06-10 00:09:00,62.9,60.5,30.14,SSE,152,0.0,0.0,92,0.00,,FEW100,0.00,VWS V14.00,2013-06-10 04:09:00,
2013-06-10 00:11:00,62.9,60.8,30.14,SSE,152,0.0,0.0,93,0.00,,FEW100,0.00,VWS V14.00,2013-06-10 04:11:00,
2013-06-10 00:16:00,62.9,60.8,30.14,West,267,0.0,0.0,93,0.00,,FEW100,0.00,VWS V14.00,2013-06-10 04:16:00,
2013-06-10 00:21:00,62.9,60.5,30.14,West,267,0.0,0.0,92,0.00,,FEW100,0.00,VWS V14.00,2013-06-10 04:21:00,
2013-06-10 00:27:00,62.8,60.5,30.14,West,267,0.0,0.0,92,0.00,,FEW100,0.00,VWS V14.00,2013-06-10 04:27:00,
2013-06-10 00:30:00,62.7,60.3,30.14,West,267,0.0,0.0,92,0.00,,OVC009,0.00,VWS V14.00,2013-06-10 04:30:00,
2013-06-10 00:32:00,62.7,60.3,30.14,West,267,0.0,0.0,92,0.00,,FEW100,0.00,VWS V14.00,2013-06-10 04:32:00,
2013-06-10 00:37:00,62.5,60.2,30.14,West,267,0.0,0.0,92,0.00,,FEW100,0.00,VWS V14.00,2013-06-10 04:37:00,
2013-06-10 00:42:00,62.4,60.0,30.14,West,267,0.0,0.0,92,0.00,,FEW100,0.00,VWS V14.00,2013-06-10 04:42:00,
2013-06-10 00:47:00,62.4,60.3,30.14,West,267,0.0,0.0,93,0.00,,FEW100,0.00,VWS V14.00,2013-06-10 04:47:00,
2013-06-10 00:52:00,62.3,60.2,30.14,West,267,0.0,0.0,93,0.00,,FEW100,0.00,VWS V14.00,2013-06-10 04:52:00,
2013-06-10 00:57:00,62.2,60.2,30.14,West,267,0.0,0.0,93,0.00,,FEW100,0.00,VWS V14.00,2013-06-10 04:57:00,
2013-06-10 01:00:00,62.3,60.3,30.14,West,267,0.0,0.0,93,0.00,,OVC009,0.00,VWS V14.00,2013-06-10 05:00:00,
2013-06-10 01:02:00,62.3,60.2,30.14,West,267,0.0,0.0,93,0.00,,FEW100,0.00,VWS V14.00,2013-06-10 05:02:00,
2013-06-10 01:07:00,62.5,60.5,30.14,West,267,0.0,0.0,93,0.00,,FEW100,0.00,VWS V14.00,2013-06-10 05:07:00,
2013-06-10 01:12:00,62.5,60.5,30.14,West,267,0.0,0.0,93,0.00,,FEW100,0.00,VWS V14.00,2013-06-10 05:12:00,
2013-06-10 01:17:00,62.5,60.5,30.14,West,267,0.0,0.0,93,0.00,,FEW100,0.00,VWS V14.00,2013-06-10 05:17:00,
2013-06-10 01:22:00,62.6,60.8,30.14,West,267,0.0,0.0,94,0.00,,FEW100,0.00,VWS V14.00,2013-06-10 05:22:00,
2013-06-10 01:27:00,62.6,60.8,30.14,West,267,0.0,0.0,94,0.00,,FEW100,0.00,VWS V14.00,2013-06-10 05:27:00,
2013-06-10 01:30:00,62.6,60.8,30.14,West,267,0.0,0.0,94,0.00,,OVC009,0.00,VWS V14.00,2013-06-10 05:30:00,
2013-06-10 01:33:00,62.6,60.8,30.14,West,267,0.0,0.0,94,0.00,,FEW100,0.00,VWS V14.00,2013-06-10 05:33:00,
2013-06-10 01:38:00,62.6,60.8,30.14,West,267,0.0,0.0,94,0.00,,FEW100,0.00,VWS V14.00,2013-06-10 05:38:00,
2013-06-10 01:43:00,62.6,60.8,30.14,West,267,0.0,0.0,94,0.00,,FEW100,0.00,VWS V14.00,2013-06-10 05:43:00,
2013-06-10 01:48:00,62.7,61.0,30.14,West,267,0.0,0.0,94,0.00,,FEW100,0.00,VWS V14.00,2013-06-10 05:48:00,
2013-06-10 01:53:00,62.7,61.0,30.14,West,267,0.0,0.0,94,0.00,,FEW100,0.00,VWS V14.00,2013-06-10 05:53:00,
2013-06-10 01:58:00,62.7,61.0,30.14,West,268,0.0,0.0,94,0.00,,FEW100,0.00,VWS V14.00,2013-06-10 05:58:00,
2013-06-10 02:00:00,62.7,61.0,30.14,West,268,0.0,0.0,94,0.00,,OVC009,0.00,VWS V14.00,2013-06-10 06:00:00,
2013-06-10 02:03:00,62.7,61.0,30.14,West,267,0.0,0.0,94,0.00,,OVC110,0.00,VWS V14.00,2013-06-10 06:03:00,
2013-06-10 02:08:00,62.8,61.0,30.14,West,268,0.0,0.0,94,0.00,,OVC110,0.00,VWS V14.00,2013-06-10 06:08:00,
2013-06-10 02:13:00,62.8,61.0,30.13,West,267,0.0,0.0,94,0.00,,OVC110,0.00,VWS V14.00,2013-06-10 06:13:00,
2013-06-10 02:19:00,62.8,61.0,30.13,West,267,0.0,0.0,94,0.00,,OVC110,0.00,VWS V14.00,2013-06-10 06:19:00,
2013-06-10 02:24:00,63.0,61.2,30.13,West,267,0.0,0.0,94,0.00,,OVC110,0.00,VWS V14.00,2013-06-10 06:24:00,
2013-06-10 02:29:00,63.1,61.3,30.13,West,267,0.0,0.0,94,0.00,,OVC110,0.00,VWS V14.00,2013-06-10 06:29:00,
2013-06-10 02:30:00,63.2,61.5,30.13,West,267,0.0,0.0,94,0.00,,OVC009,0.00,VWS V14.00,2013-06-10 06:30:00,
2013-06-10 02:34:00,63.2,61.5,30.12,West,268,0.0,0.0,94,0.00,,OVC110,0.00,VWS V14.00,2013-06-10 06:34:00,
2013-06-10 02:39:00,63.2,61.5,30.12,West,267,0.0,0.0,94,0.00,,OVC110,0.00,VWS V14.00,2013-06-10 06:39:00,
2013-06-10 02:44:00,63.2,61.5,30.13,West,268,0.0,0.0,94,0.00,,OVC110,0.00,VWS V14.00,2013-06-10 06:44:00,
2013-06-10 02:49:00,63.2,61.5,30.12,West,267,0.0,0.0,94,0.00,,OVC110,0.00,VWS V14.00,2013-06-10 06:49:00,
2013-06-10 02:54:00,63.1,61.3,30.12,West,267,0.0,0.0,94,0.00,,OVC110,0.00,VWS V14.00,2013-06-10 06:54:00,
2013-06-10 02:59:00,63.0,61.2,30.12,West,267,0.0,0.0,94,0.00,,OVC110,0.00,VWS V14.00,2013-06-10 06:59:00,
2013-06-10 03:00:00,63.0,61.2,30.12,West,267,0.0,0.0,94,0.00,,OVC009,0.00,VWS V14.00,2013-06-10 07:00:00,
2013-06-10 03:04:00,62.9,61.2,30.12,West,268,0.0,0.0,94,0.00,,BKN110,0.00,VWS V14.00,2013-06-10 07:04:00,
2013-06-10 03:09:00,62.9,61.2,30.12,West,267,0.0,0.0,94,0.00,,BKN110,0.00,VWS V14.00,2013-06-10 07:09:00,
2013-06-10 03:14:00,62.9,61.2,30.12,West,267,0.0,0.0,94,0.00,,BKN110,0.00,VWS V14.00,2013-06-10 07:14:00,
2013-06-10 03:19:00,62.8,61.0,30.12,West,267,0.0,0.0,94,0.00,,BKN110,0.00,VWS V14.00,2013-06-10 07:19:00,
2013-06-10 03:24:00,62.8,61.0,30.12,West,267,0.0,0.0,94,0.00,,BKN110,0.00,VWS V14.00,2013-06-10 07:24:00,
2013-06-10 03:29:00,62.8,61.0,30.12,West,267,0.0,0.0,94,0.00,,BKN110,0.00,VWS V14.00,2013-06-10 07:29:00,
2013-06-10 03:30:00,62.8,61.0,30.12,West,267,0.0,0.0,94,0.00,,OVC009,0.00,VWS V14.00,2013-06-10 07:30:00,
2013-06-10 03:35:00,62.8,61.0,30.12,West,268,0.0,0.0,94,0.00,,BKN110,0.00,VWS V14.00,2013-06-10 07:35:00,
2013-06-10 03:40:00,62.8,61.3,30.12,West,267,0.0,0.0,95,0.00,,BKN110,0.00,VWS V14.00,2013-06-10 07:40:00,
2013-06-10 03:45:00,62.9,61.5,30.12,West,267,0.0,0.0,95,0.00,,BKN110,0.00,VWS V14.00,2013-06-10 07:45:00,
2013-06-10 03:50:00,62.9,61.5,30.11,West,267,0.0,0.0,95,0.00,,BKN110,0.00,VWS V14.00,2013-06-10 07:50:00,
2013-06-10 03:55:00,62.9,61.5,30.11,West,267,0.0,0.0,95,0.00,,BKN110,0.00,VWS V14.00,2013-06-10 07:55:00,
2013-06-10 04:00:00,62.8,61.3,30.11,West,267,0.0,0.0,95,0.00,,BKN110,0.00,VWS V14.00,2013-06-10 08:00:00,
2013-06-10 04:05:00,62.8,61.3,30.11,West,267,0.0,0.0,95,0.00,,BKN120,0.00,VWS V14.00,2013-06-10 08:05:00,
2013-06-10 04:10:00,62.9,61.5,30.11,West,268,0.0,0.0,95,0.00,,BKN120,0.00,VWS V14.00,2013-06-10 08:10:00,
2013-06-10 04:15:00,63.0,61.5,30.11,West,267,0.0,0.0,95,0.00,,BKN120,0.00,VWS V14.00,2013-06-10 08:15:00,
2013-06-10 04:20:00,63.0,61.5,30.11,West,267,0.0,0.0,95,0.00,,BKN120,0.00,VWS V14.00,2013-06-10 08:20:00,
2013-06-10 04:25:00,63.1,61.7,30.11,West,267,0.0,0.0,95,0.00,,BKN120,0.00,VWS V14.00,2013-06-10 08:25:00,
2013-06-10 04:30:00,63.2,61.8,30.11,West,267,0.0,0.0,95,0.00,,BKN120,0.00,VWS V14.00,2013-06-10 08:30:00,
2013-06-10 04:36:00,63.2,61.8,30.12,West,267,0.0,0.0,95,0.00,,BKN120,0.00,VWS V14.00,2013-06-10 08:36:00,
2013-06-10 04:41:00,63.1,61.7,30.11,West,268,0.0,0.0,95,0.00,,BKN120,0.00,VWS V14.00,2013-06-10 08:41:00,
2013-06-10 04:46:00,63.1,61.7,30.11,West,267,0.0,0.0,95,0.00,,BKN120,0.00,VWS V14.00,2013-06-10 08:46:00,
2013-06-10 04:51:00,63.2,61.8,30.11,West,267,0.0,0.0,95,0.00,,BKN120,0.00,VWS V14.00,2013-06-10 08:51:00,
2013-06-10 04:56:00,63.2,61.8,30.11,West,267,0.0,0.0,95,0.00,,BKN120,0.00,VWS V14.00,2013-06-10 08:56:00,
2013-06-10 05:00:00,63.2,61.8,30.11,West,268,0.0,0.0,95,0.00,,OVC009,0.00,VWS V14.00,2013-06-10 09:00:00,
2013-06-10 05:02:00,63.3,61.8,30.11,West,267,0.0,0.0,95,0.00,,CLR,0.00,VWS V14.00,2013-06-10 09:02:00,
2013-06-10 05:07:00,63.3,61.8,30.11,West,267,0.0,0.0,95,0.00,,CLR,0.00,VWS V14.00,2013-06-10 09:07:00,
2013-06-10 05:12:00,63.3,61.8,30.11,West,267,0.0,0.0,95,0.00,,CLR,0.00,VWS V14.00,2013-06-10 09:12:00,
2013-06-10 05:17:00,63.3,61.8,30.11,West,267,0.0,0.0,95,0.00,,CLR,0.00,VWS V14.00,2013-06-10 09:17:00,
2013-06-10 05:22:00,63.3,61.8,30.11,West,267,0.0,0.0,95,0.00,,CLR,0.00,VWS V14.00,2013-06-10 09:22:00,
2013-06-10 05:27:00,63.2,61.8,30.11,West,266,0.0,0.0,95,0.00,,CLR,0.00,VWS V14.00,2013-06-10 09:27:00,
2013-06-10 05:30:00,63.2,61.8,30.10,West,266,0.0,0.0,95,0.00,,OVC009,0.00,VWS V14.00,2013-06-10 09:30:00,
2013-06-10 05:32:00,63.2,61.8,30.11,West,267,0.0,0.0,95,0.00,,CLR,0.00,VWS V14.00,2013-06-10 09:32:00,
2013-06-10 05:37:00,63.2,61.8,30.11,West,267,0.0,0.0,95,0.00,,CLR,0.00,VWS V14.00,2013-06-10 09:37:00,
2013-06-10 05:42:00,63.2,61.8,30.11,West,267,0.0,0.0,95,0.00,,CLR,0.00,VWS V14.00,2013-06-10 09:42:00,
2013-06-10 05:47:00,63.3,61.8,30.10,West,267,0.0,0.0,95,0.00,,CLR,0.00,VWS V14.00,2013-06-10 09:47:00,
2013-06-10 05:52:00,63.3,61.8,30.10,West,267,0.0,0.0,95,0.00,,CLR,0.00,VWS V14.00,2013-06-10 09:52:00,
2013-06-10 05:57:00,63.4,62.0,30.10,NNW,342,0.0,0.0,95,0.00,,CLR,0.00,VWS V14.00,2013-06-10 09:57:00,
2013-06-10 06:00:00,63.4,62.0,30.11,NNW,343,0.0,0.0,95,0.00,,OVC009,0.00,VWS V14.00,2013-06-10 10:00:00,
2013-06-10 06:02:00,63.5,62.0,30.11,NNW,343,0.0,0.0,95,0.00,,CLR,0.00,VWS V14.00,2013-06-10 10:02:00,
2013-06-10 06:08:00,63.6,62.2,30.11,NNW,342,0.0,0.0,95,0.00,,CLR,0.00,VWS V14.00,2013-06-10 10:08:00,
2013-06-10 06:13:00,63.7,62.2,30.11,NNW,342,0.0,0.0,95,0.00,,CLR,0.00,VWS V14.00,2013-06-10 10:13:00,
2013-06-10 06:18:00,63.7,62.2,30.11,NNW,342,0.0,0.0,95,0.00,,CLR,0.00,VWS V14.00,2013-06-10 10:18:00,
2013-06-10 06:23:00,63.8,62.3,30.11,North,350,0.0,0.0,95,0.00,,CLR,0.00,VWS V14.00,2013-06-10 10:23:00,
2013-06-10 06:28:00,64.0,62.5,30.11,NNE,29,0.0,0.0,95,0.00,,CLR,0.00,VWS V14.00,2013-06-10 10:28:00,
2013-06-10 06:30:00,64.0,62.5,30.11,NNE,20,0.0,0.0,95,0.00,,OVC009,0.00,VWS V14.00,2013-06-10 10:30:00,
2013-06-10 06:33:00,64.1,62.6,30.10,NNE,13,0.0,0.0,95,0.00,,CLR,0.00,VWS V14.00,2013-06-10 10:33:00,
2013-06-10 06:38:00,64.3,62.8,30.11,WNW,283,0.0,0.0,95,0.00,,CLR,0.00,VWS V14.00,2013-06-10 10:38:00,
2013-06-10 06:43:00,64.4,62.9,30.11,WNW,283,0.0,0.0,95,0.00,,CLR,0.00,VWS V14.00,2013-06-10 10:43:00,
2013-06-10 06:48:00,64.6,63.1,30.11,North,11,0.0,0.0,95,0.00,,CLR,0.00,VWS V14.00,2013-06-10 10:48:00,
2013-06-10 06:54:00,64.8,63.3,30.11,North,8,0.0,0.0,95,0.00,,CLR,0.00,VWS V14.00,2013-06-10 10:54:00,
2013-06-10 06:59:00,65.0,63.5,30.10,North,8,0.0,0.0,95,0.00,,CLR,0.00,VWS V14.00,2013-06-10 10:59:00,
2013-06-10 07:00:00,65.0,63.5,30.10,North,8,2.0,2.0,95,0.00,,OVC009,0.00,VWS V14.00,2013-06-10 11:00:00,
2013-06-10 07:04:00,65.1,63.3,30.10,North,6,1.0,2.0,94,0.00,,OVC090,0.00,VWS V14.00,2013-06-10 11:04:00,
2013-06-10 07:09:00,65.3,63.5,30.10,North,4,0.0,2.0,94,0.00,,OVC090,0.00,VWS V14.00,2013-06-10 11:09:00,
2013-06-10 07:14:00,65.4,63.6,30.10,North,3,0.0,2.0,94,0.00,,OVC090,0.00,VWS V14.00,2013-06-10 11:14:00,
2013-06-10 07:19:00,65.5,63.7,30.10,North,4,1.0,2.0,94,0.00,,OVC090,0.00,VWS V14.00,2013-06-10 11:19:00,
2013-06-10 07:24:00,65.6,63.5,30.10,North,4,0.0,2.0,93,0.00,,OVC090,0.00,VWS V14.00,2013-06-10 11:24:00,
2013-06-10 07:29:00,65.8,63.7,30.10,North,4,0.0,2.0,93,0.00,,OVC090,0.00,VWS V14.00,2013-06-10 11:29:00,
2013-06-10 07:30:00,65.8,63.7,30.10,North,4,0.0,2.0,93,0.00,,OVC009,0.00,VWS V14.00,2013-06-10 11:30:00,
2013-06-10 07:35:00,65.9,63.8,30.10,North,1,1.0,1.0,93,0.00,,OVC090,0.00,VWS V14.00,2013-06-10 11:35:00,
2013-06-10 07:40:00,65.9,63.8,30.10,NNE,33,1.0,2.0,93,0.00,,OVC090,0.00,VWS V14.00,2013-06-10 11:40:00,
2013-06-10 07:45:00,66.0,63.9,30.10,NNE,32,0.0,2.0,93,0.00,,OVC090,0.00,VWS V14.00,2013-06-10 11:45:00,
2013-06-10 07:50:00,66.0,63.9,30.10,North,355,0.0,2.0,93,0.00,,OVC090,0.00,VWS V14.00,2013-06-10 11:50:00,
2013-06-10 07:55:00,66.0,63.9,30.10,North,4,1.0,2.0,93,0.00,,OVC090,0.00,VWS V14.00,2013-06-10 11:55:00,
2013-06-10 08:00:00,66.1,64.0,30.10,North,4,0.0,0.0,93,0.01,,OVC090,0.01,VWS V14.00,2013-06-10 12:00:00,
2013-06-10 08:05:00,66.1,64.0,30.10,NE,42,0.0,2.0,93,0.02,,RA,0.02,VWS V14.00,2013-06-10 12:05:00,
2013-06-10 08:10:00,66.2,64.1,30.09,NNE,20,0.0,2.0,93,0.03,,RA,0.03,VWS V14.00,2013-06-10 12:10:00,
2013-06-10 08:15:00,66.3,64.5,30.09,SSE,148,0.0,3.0,94,0.04,,RA,0.04,VWS V14.00,2013-06-10 12:15:00,
2013-06-10 08:20:00,66.4,64.6,30.09,North,4,1.0,3.0,94,0.05,,RA,0.05,VWS V14.00,2013-06-10 12:20:00,
2013-06-10 08:26:00,66.4,64.6,30.09,NNE,18,0.0,3.0,94,0.06,,RA,0.06,VWS V14.00,2013-06-10 12:26:00,
2013-06-10 08:30:00,66.4,64.6,30.08,North,6,1.0,3.0,94,0.07,,OVC009,0.07,VWS V14.00,2013-06-10 12:30:00,
2013-06-10 08:31:00,66.4,64.6,30.08,North,6,0.0,1.0,94,0.07,, +RA,0.07,VWS V14.00,2013-06-10 12:31:00,
2013-06-10 08:36:00,66.5,64.7,30.09,North,4,1.0,3.0,94,0.08,, +RA,0.08,VWS V14.00,2013-06-10 12:36:00,
2013-06-10 08:41:00,66.4,64.6,30.09,NNW,339,2.0,3.0,94,0.10,, +RA,0.10,VWS V14.00,2013-06-10 12:41:00,
2013-06-10 08:46:00,66.3,64.5,30.09,NW,308,1.0,3.0,94,0.12,, +RA,0.12,VWS V14.00,2013-06-10 12:46:00,
2013-06-10 08:51:00,66.2,64.4,30.11,SW,228,2.0,3.0,94,0.14,, +RA,0.14,VWS V14.00,2013-06-10 12:51:00,
2013-06-10 08:56:00,66.0,64.2,30.12,North,358,1.0,4.0,94,0.28,, +RA,0.28,VWS V14.00,2013-06-10 12:56:00,
2013-06-10 09:00:00,65.8,64.0,30.11,NNW,328,2.0,4.0,94,0.38,,OVC009,0.38,VWS V14.00,2013-06-10 13:00:00,
2013-06-10 09:01:00,65.7,63.9,30.11,NNW,340,1.0,3.0,94,0.41,,-RA,0.42,VWS V14.00,2013-06-10 13:01:00,
2013-06-10 09:06:00,65.6,63.8,30.10,NW,309,1.0,3.0,94,0.52,,-RA,0.53,VWS V14.00,2013-06-10 13:06:00,
2013-06-10 09:11:00,65.5,64.0,30.10,ENE,58,1.0,3.0,95,0.54,,-RA,0.55,VWS V14.00,2013-06-10 13:11:00,
2013-06-10 09:16:00,65.5,64.0,30.10,ENE,63,0.0,3.0,95,0.57,,-RA,0.58,VWS V14.00,2013-06-10 13:16:00,
2013-06-10 09:22:00,65.7,64.2,30.10,NNE,17,0.0,3.0,95,0.57,,-RA,0.58,VWS V14.00,2013-06-10 13:22:00,
2013-06-10 09:27:00,65.8,64.3,30.09,ENE,63,1.0,4.0,95,0.58,,-RA,0.59,VWS V14.00,2013-06-10 13:27:00,
2013-06-10 09:30:00,65.8,64.3,30.09,North,4,1.0,4.0,95,0.58,,OVC009,0.59,VWS V14.00,2013-06-10 13:30:00,
2013-06-10 09:32:00,65.8,64.3,30.09,NW,326,0.0,3.0,95,0.53,,-RA,0.60,VWS V14.00,2013-06-10 13:32:00,
2013-06-10 09:37:00,66.0,64.5,30.09,North,9,1.0,3.0,95,0.53,,-RA,0.60,VWS V14.00,2013-06-10 13:37:00,
2013-06-10 09:42:00,66.2,64.7,30.08,NE,46,1.0,3.0,95,0.54,,-RA,0.61,VWS V14.00,2013-06-10 13:42:00,
2013-06-10 09:47:00,66.4,64.9,30.08,NE,55,5.0,5.0,95,0.54,,-RA,0.61,VWS V14.00,2013-06-10 13:47:00,
2013-06-10 09:52:00,66.6,65.1,30.08,ENE,58,0.0,5.0,95,0.54,,-RA,0.61,VWS V14.00,2013-06-10 13:52:00,
2013-06-10 09:57:00,66.9,65.4,30.08,East,99,0.0,5.0,95,0.54,,-RA,0.61,VWS V14.00,2013-06-10 13:57:00,
2013-06-10 10:00:00,66.9,65.4,30.08,ENE,61,0.0,5.0,95,0.54,,OVC009,0.61,VWS V14.00,2013-06-10 14:00:00,
2013-06-10 10:02:00,67.0,65.5,30.08,NNE,19,3.0,5.0,95,0.23,,-RA,0.61,VWS V14.00,2013-06-10 14:02:00,
2013-06-10 10:08:00,67.3,65.8,30.07,NE,47,2.0,7.0,95,0.23,,-RA,0.61,VWS V14.00,2013-06-10 14:08:00,
2013-06-10 10:13:00,67.5,66.0,30.07,North,6,1.0,7.0,95,0.23,,-RA,0.61,VWS V14.00,2013-06-10 14:13:00,
2013-06-10 10:18:00,67.7,66.2,30.07,ENE,62,1.0,7.0,95,0.23,,-RA,0.61,VWS V14.00,2013-06-10 14:18:00,
2013-06-10 10:23:00,67.8,66.0,30.07,East,82,0.0,7.0,94,0.23,,OVC012,0.61,VWS V14.00,2013-06-10 14:23:00,
2013-06-10 10:28:00,68.4,66.6,30.07,North,9,1.0,7.0,94,0.23,,OVC012,0.61,VWS V14.00,2013-06-10 14:28:00,
2013-06-10 10:30:00,68.5,66.7,30.07,ESE,122,1.0,7.0,94,0.23,,OVC009,0.61,VWS V14.00,2013-06-10 14:30:00,
2013-06-10 10:33:00,69.0,67.2,30.07,East,79,2.0,4.0,94,0.02,,OVC012,0.61,VWS V14.00,2013-06-10 14:33:00,
2013-06-10 10:38:00,69.3,66.9,30.07,NE,51,2.0,7.0,92,0.02,,OVC012,0.61,VWS V14.00,2013-06-10 14:38:00,
2013-06-10 10:44:00,69.4,66.7,30.07,NE,40,1.0,7.0,91,0.02,,OVC012,0.61,VWS V14.00,2013-06-10 14:44:00,
2013-06-10 10:49:00,68.9,65.8,30.07,NW,308,1.0,7.0,90,0.02,,OVC012,0.61,VWS V14.00,2013-06-10 14:49:00,
2013-06-10 10:54:00,68.5,65.8,30.07,NE,51,2.0,7.0,91,0.02,,OVC008,0.61,VWS V14.00,2013-06-10 14:54:00,
2013-06-10 10:59:00,68.1,65.4,30.07,ENE,60,2.0,7.0,91,0.02,,OVC008,0.61,VWS V14.00,2013-06-10 14:59:00,
2013-06-10 11:00:00,68.1,65.4,30.07,East,100,1.0,7.0,91,0.02,,OVC009,0.61,VWS V14.00,2013-06-10 15:00:00,
2013-06-10 11:04:00,67.9,65.2,30.06,East,96,2.0,6.0,91,0.00,,OVC010,0.61,VWS V14.00,2013-06-10 15:04:00,
2013-06-10 11:09:00,67.8,65.4,30.06,NNE,19,2.0,8.0,92,0.00,,OVC010,0.61,VWS V14.00,2013-06-10 15:09:00,
2013-06-10 11:14:00,67.8,65.4,30.06,North,355,1.0,8.0,92,0.00,,OVC010,0.61,VWS V14.00,2013-06-10 15:14:00,
2013-06-10 11:19:00,68.0,65.9,30.06,NE,44,0.0,8.0,93,0.00,,OVC010,0.61,VWS V14.00,2013-06-10 15:19:00,
2013-06-10 11:25:00,68.3,66.2,30.06,NNE,17,0.0,8.0,93,0.00,,OVC010,0.61,VWS V14.00,2013-06-10 15:25:00,
2013-06-10 11:30:00,68.4,65.7,30.06,NE,40,2.0,3.0,91,0.00,,OVC010,0.61,VWS V14.00,2013-06-10 15:30:00,
2013-06-10 11:35:00,68.5,66.1,30.06,North,8,2.0,4.0,92,0.00,,OVC010,0.61,VWS V14.00,2013-06-10 15:35:00,
2013-06-10 11:40:00,68.5,65.5,30.05,West,278,1.0,8.0,90,0.00,,OVC010,0.61,VWS V14.00,2013-06-10 15:40:00,
2013-06-10 11:45:00,68.4,65.7,30.05,NE,34,2.0,8.0,91,0.00,,OVC010,0.61,VWS V14.00,2013-06-10 15:45:00,
2013-06-10 11:50:00,68.2,65.2,30.06,East,99,1.0,8.0,90,0.00,,OVC010,0.61,VWS V14.00,2013-06-10 15:50:00,
2013-06-10 11:55:00,67.9,65.2,30.05,NNE,13,2.0,8.0,91,0.00,,OVC010,0.61,VWS V14.00,2013-06-10 15:55:00,
2013-06-10 12:00:00,67.9,65.5,30.05,East,79,2.0,2.0,92,0.00,,OVC010,0.61,VWS V14.00,2013-06-10 16:00:00,
2013-06-10 12:05:00,67.9,65.2,30.05,NNE,29,0.0,5.0,91,0.00,,OVC006,0.61,VWS V14.00,2013-06-10 16:05:00,
2013-06-10 12:11:00,68.0,65.6,30.05,NNE,27,3.0,5.0,92,0.00,,OVC006,0.61,VWS V14.00,2013-06-10 16:11:00,
2013-06-10 12:16:00,67.9,65.5,30.05,NNW,334,1.0,5.0,92,0.00,,OVC006,0.61,VWS V14.00,2013-06-10 16:16:00,
2013-06-10 12:21:00,67.9,65.5,30.04,North,355,1.0,5.0,92,0.00,,OVC006,0.61,VWS V14.00,2013-06-10 16:21:00,
2013-06-10 12:26:00,67.8,65.4,30.04,SE,128,2.0,5.0,92,0.00,,OVC006,0.61,VWS V14.00,2013-06-10 16:26:00,
2013-06-10 12:30:00,67.8,65.4,30.04,ENE,68,2.0,5.0,92,0.00,,OVC009,0.61,VWS V14.00,2013-06-10 16:30:00,
2013-06-10 12:31:00,67.8,65.1,30.04,East,84,1.0,2.0,91,0.00,,OVC006,0.61,VWS V14.00,2013-06-10 16:31:00,
2013-06-10 12:36:00,67.9,65.5,30.04,NE,51,0.0,3.0,92,0.00,,OVC006,0.61,VWS V14.00,2013-06-10 16:36:00,
2013-06-10 12:41:00,67.8,65.1,30.04,ESE,104,1.0,6.0,91,0.00,,OVC006,0.61,VWS V14.00,2013-06-10 16:41:00,
2013-06-10 12:46:00,67.7,65.3,30.03,WNW,291,1.0,8.0,92,0.00,,OVC006,0.61,VWS V14.00,2013-06-10 16:46:00,
2013-06-10 12:52:00,67.8,65.4,30.03,East,84,0.0,8.0,92,0.00,,OVC006,0.61,VWS V14.00,2013-06-10 16:52:00,
2013-06-10 12:57:00,67.9,65.5,30.03,ESE,108,1.0,8.0,92,0.00,,OVC006,0.61,VWS V14.00,2013-06-10 16:57:00,
2013-06-10 13:00:00,67.9,65.5,30.03,East,97,2.0,8.0,92,0.00,,OVC009,0.61,VWS V14.00,2013-06-10 17:00:00,
2013-06-10 13:02:00,67.8,65.4,30.03,ESE,107,1.0,3.0,92,0.00,,,0.61,VWS V14.00,2013-06-10 17:02:00,
2013-06-10 13:07:00,67.7,65.3,30.03,NNE,29,0.0,4.0,92,0.00,,,0.61,VWS V14.00,2013-06-10 17:07:00,
2013-06-10 13:12:00,67.4,65.0,30.02,ENE,73,1.0,8.0,92,0.00,,,0.61,VWS V14.00,2013-06-10 17:12:00,
2013-06-10 13:17:00,67.3,65.2,30.02,NE,51,0.0,8.0,93,0.00,,,0.61,VWS V14.00,2013-06-10 17:17:00,
2013-06-10 13:22:00,67.2,65.1,30.02,North,1,1.0,8.0,93,0.00,,,0.61,VWS V14.00,2013-06-10 17:22:00,
2013-06-10 13:27:00,67.1,65.0,30.02,ENE,72,4.0,8.0,93,0.00,,,0.61,VWS V14.00,2013-06-10 17:27:00,
2013-06-10 13:30:00,67.1,65.0,30.02,ESE,104,1.0,8.0,93,0.00,,OVC009,0.61,VWS V14.00,2013-06-10 17:30:00,
2013-06-10 13:32:00,67.0,64.9,30.01,ENE,73,1.0,5.0,93,0.00,,,0.61,VWS V14.00,2013-06-10 17:32:00,
2013-06-10 13:37:00,67.0,65.2,30.01,ESE,106,3.0,6.0,94,0.00,,,0.61,VWS V14.00,2013-06-10 17:37:00,
2013-06-10 13:43:00,67.1,65.3,30.01,North,5,3.0,6.0,94,0.00,,,0.61,VWS V14.00,2013-06-10 17:43:00,
2013-06-10 13:48:00,67.2,65.4,30.01,NNW,345,0.0,6.0,94,0.00,,,0.61,VWS V14.00,2013-06-10 17:48:00,
2013-06-10 13:53:00,67.2,65.4,30.00,NNE,22,0.0,6.0,94,0.00,,,0.61,VWS V14.00,2013-06-10 17:53:00,
2013-06-10 13:58:00,67.2,65.4,30.00,North,360,2.0,6.0,94,0.00,,,0.61,VWS V14.00,2013-06-10 17:58:00,
2013-06-10 14:00:00,67.2,65.4,30.00,NNE,32,1.0,6.0,94,0.01,,OVC009,0.62,VWS V14.00,2013-06-10 18:00:00,
2013-06-10 14:03:00,67.0,65.2,30.00,NNW,340,2.0,4.0,94,0.01,,-RA,0.62,VWS V14.00,2013-06-10 18:03:00,
2013-06-10 14:08:00,66.8,65.0,30.00,North,11,1.0,6.0,94,0.01,,-RA,0.62,VWS V14.00,2013-06-10 18:08:00,
2013-06-10 14:13:00,66.6,64.8,29.99,North,4,2.0,6.0,94,0.01,,RA,0.62,VWS V14.00,2013-06-10 18:13:00,
2013-06-10 14:18:00,66.4,64.6,29.99,North,357,2.0,6.0,94,0.02,,RA,0.63,VWS V14.00,2013-06-10 18:18:00,
2013-06-10 14:23:00,66.2,64.7,29.99,ENE,66,3.0,6.0,95,0.02,,RA,0.63,VWS V14.00,2013-06-10 18:23:00,
2013-06-10 14:29:00,66.2,64.4,29.99,NE,46,1.0,6.0,94,0.03,,RA,0.64,VWS V14.00,2013-06-10 18:29:00,
2013-06-10 14:30:00,66.2,64.7,29.99,NE,47,0.0,6.0,95,0.04,,OVC009,0.65,VWS V14.00,2013-06-10 18:30:00,
2013-06-10 14:34:00,66.2,64.7,29.98,East,94,0.0,4.0,95,0.06,,RA,0.67,VWS V14.00,2013-06-10 18:34:00,
2013-06-10 14:39:00,66.2,64.7,29.98,NE,37,0.0,4.0,95,0.07,,RA,0.68,VWS V14.00,2013-06-10 18:39:00,
2013-06-10 14:44:00,66.2,64.7,29.98,East,82,0.0,4.0,95,0.08,,-RA,0.69,VWS V14.00,2013-06-10 18:44:00,
2013-06-10 14:49:00,66.2,64.7,29.98,NNE,23,1.0,5.0,95,0.09,,-RA,0.70,VWS V14.00,2013-06-10 18:49:00,
2013-06-10 14:54:00,66.3,64.8,29.98,NNE,32,0.0,5.0,95,0.09,,-RA,0.70,VWS V14.00,2013-06-10 18:54:00,
2013-06-10 15:00:00,66.5,65.0,29.98,NE,55,0.0,1.0,95,0.08,,-RA,0.70,VWS V14.00,2013-06-10 19:00:00,
2013-06-10 15:05:00,66.6,65.1,29.98,ENE,71,0.0,2.0,95,0.08,,-RA,0.70,VWS V14.00,2013-06-10 19:05:00,
2013-06-10 15:10:00,66.8,65.3,29.97,NNE,30,0.0,5.0,95,0.08,,-RA,0.70,VWS V14.00,2013-06-10 19:10:00,
2013-06-10 15:15:00,66.8,65.3,29.97,North,359,1.0,5.0,95,0.08,,-RA,0.70,VWS V14.00,2013-06-10 19:15:00,
2013-06-10 15:20:00,66.9,65.4,29.96,NW,315,1.0,5.0,95,0.09,,-RA,0.71,VWS V14.00,2013-06-10 19:20:00,
2013-06-10 15:25:00,67.0,65.5,29.96,ENE,75,0.0,5.0,95,0.09,,RA,0.71,VWS V14.00,2013-06-10 19:25:00,
2013-06-10 15:30:00,67.3,66.1,29.96,NNE,19,0.0,1.0,96,0.07,,RA,0.72,VWS V14.00,2013-06-10 19:30:00,
2013-06-10 15:35:00,67.3,65.8,29.95,ENE,73,0.0,5.0,95,0.09,,RA,0.74,VWS V14.00,2013-06-10 19:35:00,
2013-06-10 15:40:00,67.2,65.7,29.95,NE,48,0.0,6.0,95,0.10,,RA,0.75,VWS V14.00,2013-06-10 19:40:00,
2013-06-10 15:46:00,67.3,65.8,29.95,NE,53,0.0,6.0,95,0.13,, +RA,0.78,VWS V14.00,2013-06-10 19:46:00,
2013-06-10 15:51:00,67.3,65.8,29.94,East,96,2.0,6.0,95,0.15,, +RA,0.80,VWS V14.00,2013-06-10 19:51:00,
2013-06-10 15:56:00,67.1,65.6,29.94,North,350,1.0,6.0,95,0.16,, +RA,0.81,VWS V14.00,2013-06-10 19:56:00,
2013-06-10 16:00:00,67.1,65.6,29.94,ESE,119,1.0,6.0,95,0.16,,OVC009,0.81,VWS V14.00,2013-06-10 20:00:00,
2013-06-10 16:01:00,67.1,65.6,29.94,NE,55,0.0,6.0,95,0.12,, +RA,0.82,VWS V14.00,2013-06-10 20:01:00,
2013-06-10 16:06:00,67.1,65.6,29.94,NE,44,1.0,6.0,95,0.13,, +RA,0.83,VWS V14.00,2013-06-10 20:06:00,
2013-06-10 16:12:00,67.1,65.6,29.94,North,357,1.0,6.0,95,0.14,,RA,0.84,VWS V14.00,2013-06-10 20:12:00,
2013-06-10 16:17:00,67.0,65.5,29.94,North,349,2.0,6.0,95,0.14,,RA,0.84,VWS V14.00,2013-06-10 20:17:00,
2013-06-10 16:22:00,67.0,65.5,29.94,NNE,23,0.0,6.0,95,0.15,,-RA,0.85,VWS V14.00,2013-06-10 20:22:00,
2013-06-10 16:27:00,66.9,65.4,29.94,NW,322,1.0,6.0,95,0.15,,-RA,0.85,VWS V14.00,2013-06-10 20:27:00,
2013-06-10 16:30:00,66.8,65.3,29.94,NE,44,1.0,6.0,95,0.16,,OVC009,0.86,VWS V14.00,2013-06-10 20:30:00,
2013-06-10 16:32:00,66.8,65.3,29.94,North,7,2.0,3.0,95,0.16,,-RA,0.88,VWS V14.00,2013-06-10 20:32:00,
2013-06-10 16:37:00,66.7,65.2,29.94,ENE,70,0.0,3.0,95,0.18,,-RA,0.90,VWS V14.00,2013-06-10 20:37:00,
2013-06-10 16:42:00,66.6,65.1,29.94,ENE,73,2.0,3.0,95,0.18,,-RA,0.90,VWS V14.00,2013-06-10 20:42:00,
2013-06-10 16:47:00,66.6,65.1,29.94,NNE,30,1.0,4.0,95,0.18,,-RA,0.90,VWS V14.00,2013-06-10 20:47:00,
2013-06-10 16:52:00,66.6,65.1,29.93,NE,49,0.0,4.0,95,0.18,,-RA,0.90,VWS V14.00,2013-06-10 20:52:00,
2013-06-10 16:57:00,66.6,65.1,29.93,NE,51,2.0,4.0,95,0.18,,-RA,0.90,VWS V14.00,2013-06-10 20:57:00,
2013-06-10 17:00:00,66.5,65.0,29.93,East,97,0.0,4.0,95,0.18,,OVC009,0.90,VWS V14.00,2013-06-10 21:00:00,
2013-06-10 17:03:00,66.6,65.1,29.93,NE,45,1.0,2.0,95,0.09,,-RA,0.90,VWS V14.00,2013-06-10 21:03:00,
2013-06-10 17:08:00,66.5,65.0,29.93,NNE,13,1.0,4.0,95,0.09,,-RA,0.90,VWS V14.00,2013-06-10 21:08:00,
2013-06-10 17:13:00,66.5,65.0,29.92,NE,46,0.0,4.0,95,0.10,,-RA,0.91,VWS V14.00,2013-06-10 21:13:00,
2013-06-10 17:18:00,66.6,65.1,29.92,ESE,103,0.0,4.0,95,0.10,,-RA,0.91,VWS V14.00,2013-06-10 21:18:00,
2013-06-10 17:23:00,66.6,65.4,29.92,ESE,103,1.0,4.0,96,0.11,,-RA,0.92,VWS V14.00,2013-06-10 21:23:00,
2013-06-10 17:28:00,66.6,65.4,29.91,North,358,0.0,4.0,96,0.12,,-RA,0.93,VWS V14.00,2013-06-10 21:28:00,
2013-06-10 17:30:00,66.6,65.4,29.91,NE,53,1.0,4.0,96,0.12,,OVC009,0.93,VWS V14.00,2013-06-10 21:30:00,
2013-06-10 17:33:00,66.6,65.4,29.91,North,353,1.0,1.0,96,0.07,,-RA,0.93,VWS V14.00,2013-06-10 21:33:00,
2013-06-10 17:39:00,66.6,65.4,29.91,ENE,61,1.0,2.0,96,0.08,,-RA,0.94,VWS V14.00,2013-06-10 21:39:00,
2013-06-10 17:44:00,66.6,65.4,29.90,NE,50,0.0,3.0,96,0.10,,-RA,0.96,VWS V14.00,2013-06-10 21:44:00,
2013-06-10 17:49:00,66.6,65.4,29.90,NE,41,0.0,3.0,96,0.11,,-RA,0.97,VWS V14.00,2013-06-10 21:49:00,
2013-06-10 17:54:00,66.6,65.4,29.90,ENE,65,0.0,3.0,96,0.14,, +RA,1.00,VWS V14.00,2013-06-10 21:54:00,
2013-06-10 17:59:00,66.6,65.4,29.90,NE,41,1.0,3.0,96,0.15,, +RA,1.01,VWS V14.00,2013-06-10 21:59:00,
2013-06-10 18:00:00,66.6,65.4,29.90,NE,41,1.0,3.0,96,0.15,,OVC009,1.01,VWS V14.00,2013-06-10 22:00:00,
2013-06-10 18:05:00,66.6,65.4,29.90,NW,319,0.0,2.0,96,0.13,,RA,1.03,VWS V14.00,2013-06-10 22:05:00,
2013-06-10 18:10:00,66.6,65.4,29.90,NW,305,0.0,2.0,96,0.14,,RA,1.04,VWS V14.00,2013-06-10 22:10:00,
2013-06-10 18:15:00,66.7,65.5,29.90,NE,52,0.0,2.0,96,0.15,,RA,1.05,VWS V14.00,2013-06-10 22:15:00,
2013-06-10 18:20:00,66.7,65.5,29.90,NNE,33,1.0,2.0,96,0.17,,RA,1.07,VWS V14.00,2013-06-10 22:20:00,
2013-06-10 18:25:00,66.7,65.5,29.90,NNW,338,0.0,2.0,96,0.19,, +RA,1.09,VWS V14.00,2013-06-10 22:25:00,
2013-06-10 18:30:00,66.7,65.5,29.90,NE,45,1.0,2.0,96,0.30,, +RA,1.23,VWS V14.00,2013-06-10 22:30:00,
2013-06-10 18:35:00,66.7,65.5,29.89,North,9,0.0,2.0,96,0.37,, +RA,1.30,VWS V14.00,2013-06-10 22:35:00,
2013-06-10 18:40:00,66.7,65.5,29.89,ENE,59,2.0,3.0,96,0.39,, +RA,1.32,VWS V14.00,2013-06-10 22:40:00,
2013-06-10 18:46:00,66.7,65.5,29.88,NNW,336,1.0,4.0,96,0.43,, +RA,1.36,VWS V14.00,2013-06-10 22:46:00,
2013-06-10 18:51:00,66.7,65.5,29.88,NE,46,1.0,4.0,96,0.46,, +RA,1.39,VWS V14.00,2013-06-10 22:51:00,
2013-06-10 18:56:00,66.6,65.4,29.88,ENE,62,3.0,4.0,96,0.49,, +RA,1.42,VWS V14.00,2013-06-10 22:56:00,
2013-06-10 19:00:00,66.6,65.4,29.88,North,1,2.0,4.0,96,0.51,,OVC009,1.44,VWS V14.00,2013-06-10 23:00:00,
2013-06-10 19:01:00,66.6,65.4,29.88,SW,229,1.0,2.0,96,0.44,,RA,1.45,VWS V14.00,2013-06-10 23:01:00,
2013-06-10 19:06:00,66.6,65.4,29.88,SSW,202,0.0,2.0,96,0.49,,RA,1.50,VWS V14.00,2013-06-10 23:06:00,
2013-06-10 19:11:00,66.7,65.5,29.87,NE,56,0.0,2.0,96,0.52,,-RA,1.53,VWS V14.00,2013-06-10 23:11:00,
2013-06-10 19:16:00,66.7,65.5,29.87,North,11,0.0,2.0,96,0.55,,-RA,1.56,VWS V14.00,2013-06-10 23:16:00,
2013-06-10 19:22:00,66.8,65.6,29.87,NNE,18,0.0,2.0,96,0.60,,-RA,1.61,VWS V14.00,2013-06-10 23:22:00,
2013-06-10 19:27:00,66.9,65.7,29.86,NNE,18,0.0,2.0,96,0.62,,-RA,1.63,VWS V14.00,2013-06-10 23:27:00,
2013-06-10 19:30:00,66.9,65.7,29.86,NNE,18,0.0,2.0,96,0.64,,OVC009,1.65,VWS V14.00,2013-06-10 23:30:00,
2013-06-10 19:32:00,67.0,65.8,29.86,North,11,0.0,0.0,96,0.44,,-RA,1.65,VWS V14.00,2013-06-10 23:32:00,
2013-06-10 19:37:00,67.1,65.9,29.86,North,11,0.0,0.0,96,0.45,,-RA,1.66,VWS V14.00,2013-06-10 23:37:00,
2013-06-10 19:42:00,67.2,66.0,29.86,North,11,0.0,0.0,96,0.45,,-RA,1.66,VWS V14.00,2013-06-10 23:42:00,
2013-06-10 19:47:00,67.1,65.9,29.85,North,11,0.0,0.0,96,0.45,,-RA,1.66,VWS V14.00,2013-06-10 23:47:00,
2013-06-10 19:53:00,67.0,65.8,29.85,North,6,0.0,0.0,96,0.46,,-RA,1.67,VWS V14.00,2013-06-10 23:53:00,
2013-06-10 19:58:00,66.8,65.6,29.85,NNW,343,0.0,2.0,96,0.46,,-RA,1.67,VWS V14.00,2013-06-10 23:58:00,
2013-06-10 20:00:00,66.7,65.5,29.85,NNE,23,0.0,2.0,96,0.46,,OVC009,1.67,VWS V14.00,2013-06-11 00:00:00,
2013-06-10 20:03:00,66.6,65.4,29.85,North,359,1.0,2.0,96,0.23,,OVC007,1.67,VWS V14.00,2013-06-11 00:03:00,
2013-06-10 20:08:00,66.6,65.4,29.85,North,1,0.0,2.0,96,0.23,,OVC007,1.67,VWS V14.00,2013-06-11 00:08:00,
2013-06-10 20:13:00,66.6,65.4,29.85,North,1,0.0,2.0,96,0.23,,OVC007,1.67,VWS V14.00,2013-06-11 00:13:00,
2013-06-10 20:18:00,66.6,65.4,29.84,North,1,0.0,2.0,96,0.23,,OVC007,1.67,VWS V14.00,2013-06-11 00:18:00,
2013-06-10 20:23:00,66.7,65.5,29.84,North,1,0.0,2.0,96,0.23,,OVC007,1.67,VWS V14.00,2013-06-11 00:23:00,
2013-06-10 20:28:00,66.8,65.6,29.83,North,1,0.0,2.0,96,0.23,,OVC007,1.67,VWS V14.00,2013-06-11 00:28:00,
2013-06-10 20:30:00,66.9,65.7,29.83,North,1,0.0,2.0,96,0.23,,OVC009,1.67,VWS V14.00,2013-06-11 00:30:00,
2013-06-10 20:33:00,67.0,66.1,29.83,North,1,0.0,0.0,97,0.02,,OVC007,1.67,VWS V14.00,2013-06-11 00:33:00,
2013-06-10 20:38:00,67.1,66.2,29.83,North,1,0.0,0.0,97,0.02,,OVC007,1.67,VWS V14.00,2013-06-11 00:38:00,
2013-06-10 20:43:00,67.6,66.7,29.83,North,1,0.0,0.0,97,0.02,,OVC007,1.67,VWS V14.00,2013-06-11 00:43:00,
2013-06-10 20:48:00,67.9,67.0,29.82,North,1,0.0,0.0,97,0.02,,OVC007,1.67,VWS V14.00,2013-06-11 00:48:00,
2013-06-10 20:53:00,68.3,67.4,29.82,North,1,0.0,0.0,97,0.02,,OVC007,1.67,VWS V14.00,2013-06-11 00:53:00,
2013-06-10 20:58:00,68.1,67.2,29.82,West,280,0.0,0.0,97,0.02,,OVC007,1.67,VWS V14.00,2013-06-11 00:58:00,
2013-06-10 21:00:00,68.1,67.2,29.82,West,279,0.0,0.0,97,0.02,,OVC009,1.67,VWS V14.00,2013-06-11 01:00:00,
2013-06-10 21:03:00,68.0,67.1,29.82,WSW,249,0.0,0.0,97,0.00,,OVC009,1.67,VWS V14.00,2013-06-11 01:03:00,
2013-06-10 21:09:00,68.4,67.5,29.83,SE,146,0.0,2.0,97,0.00,,OVC009,1.67,VWS V14.00,2013-06-11 01:09:00,
2013-06-10 21:14:00,69.0,68.1,29.83,ESE,104,2.0,3.0,97,0.00,,OVC009,1.67,VWS V14.00,2013-06-11 01:14:00,
2013-06-10 21:19:00,70.1,69.2,29.83,SE,143,2.0,3.0,97,0.00,,OVC009,1.67,VWS V14.00,2013-06-11 01:19:00,
2013-06-10 21:24:00,70.3,69.4,29.83,SSE,167,2.0,6.0,97,0.00,,OVC009,1.67,VWS V14.00,2013-06-11 01:24:00,
2013-06-10 21:29:00,70.4,69.5,29.83,SW,219,1.0,6.0,97,0.00,,OVC009,1.67,VWS V14.00,2013-06-11 01:29:00,
2013-06-10 21:30:00,70.4,69.5,29.83,SW,219,1.0,6.0,97,0.00,,OVC009,1.67,VWS V14.00,2013-06-11 01:30:00,
2013-06-10 21:34:00,70.5,69.6,29.83,SSE,162,0.0,3.0,97,0.00,,OVC009,1.67,VWS V14.00,2013-06-11 01:34:00,
2013-06-10 21:39:00,70.5,69.6,29.84,SSE,150,1.0,3.0,97,0.00,,OVC009,1.67,VWS V14.00,2013-06-11 01:39:00,
2013-06-10 21:45:00,70.6,69.7,29.83,SE,144,2.0,4.0,97,0.00,,OVC009,1.67,VWS V14.00,2013-06-11 01:45:00,
2013-06-10 21:50:00,70.6,69.7,29.83,SE,139,0.0,4.0,97,0.00,,OVC009,1.67,VWS V14.00,2013-06-11 01:50:00,
2013-06-10 21:55:00,70.6,69.7,29.83,South,187,1.0,4.0,97,0.00,,OVC009,1.67,VWS V14.00,2013-06-11 01:55:00,
2013-06-10 22:00:00,70.6,69.7,29.83,SSE,149,1.0,1.0,97,0.00,,OVC009,1.67,VWS V14.00,2013-06-11 02:00:00,
2013-06-10 22:05:00,70.6,69.7,29.83,South,186,1.0,4.0,97,0.00,,-RA,1.67,VWS V14.00,2013-06-11 02:05:00,
2013-06-10 22:10:00,70.6,69.7,29.83,SE,134,2.0,4.0,97,0.00,,-RA,1.67,VWS V14.00,2013-06-11 02:10:00,
2013-06-10 22:15:00,70.6,69.7,29.83,SE,146,3.0,4.0,97,0.00,,-RA,1.67,VWS V14.00,2013-06-11 02:15:00,
2013-06-10 22:20:00,70.6,69.4,29.83,South,190,1.0,4.0,96,0.00,,-RA,1.67,VWS V14.00,2013-06-11 02:20:00,
2013-06-10 22:25:00,70.5,69.3,29.83,SSE,148,1.0,4.0,96,0.00,,-RA,1.67,VWS V14.00,2013-06-11 02:25:00,
2013-06-10 22:30:00,70.5,69.3,29.83,SE,141,1.0,2.0,96,0.00,,-RA,1.67,VWS V14.00,2013-06-11 02:30:00,
2013-06-10 22:35:00,70.5,69.3,29.83,South,179,1.0,2.0,96,0.00,,-RA,1.67,VWS V14.00,2013-06-11 02:35:00,
2013-06-10 22:41:00,70.5,69.3,29.82,SSE,150,1.0,3.0,96,0.00,,-RA,1.67,VWS V14.00,2013-06-11 02:41:00,
2013-06-10 22:46:00,70.5,69.3,29.82,SE,142,1.0,3.0,96,0.00,,-RA,1.67,VWS V14.00,2013-06-11 02:46:00,
2013-06-10 22:52:00,70.5,69.3,29.82,SE,139,3.0,4.0,96,0.00,,-RA,1.67,VWS V14.00,2013-06-11 02:52:00,
2013-06-10 22:57:00,70.5,69.3,29.82,SSE,167,0.0,4.0,96,0.00,,-RA,1.67,VWS V14.00,2013-06-11 02:57:00,
2013-06-10 23:00:00,70.4,69.2,29.81,SE,124,0.0,4.0,96,0.00,,OVC009,1.67,VWS V14.00,2013-06-11 03:00:00,
2013-06-10 23:02:00,70.4,69.2,29.81,SSE,148,1.0,1.0,96,0.00,,-RA,1.67,VWS V14.00,2013-06-11 03:02:00,
2013-06-10 23:07:00,70.3,69.1,29.81,SE,135,1.0,2.0,96,0.00,,-RA,1.67,VWS V14.00,2013-06-11 03:07:00,
2013-06-10 23:12:00,70.3,69.1,29.81,SE,146,2.0,2.0,96,0.00,,-RA,1.67,VWS V14.00,2013-06-11 03:12:00,
2013-06-10 23:17:00,70.2,69.0,29.80,SE,146,1.0,2.0,96,0.00,,-RA,1.67,VWS V14.00,2013-06-11 03:17:00,
2013-06-10 23:22:00,70.2,69.0,29.80,SE,141,1.0,2.0,96,0.00,,-RA,1.67,VWS V14.00,2013-06-11 03:22:00,
2013-06-10 23:27:00,70.1,68.9,29.79,SE,139,0.0,2.0,96,0.01,,-RA,1.68,VWS V14.00,2013-06-11 03:27:00,
2013-06-10 23:30:00,70.1,68.9,29.79,SSE,156,0.0,2.0,96,0.01,,OVC009,1.68,VWS V14.00,2013-06-11 03:30:00,
2013-06-10 23:32:00,70.1,68.9,29.79,SSE,156,0.0,1.0,96,0.01,,-RA,1.68,VWS V14.00,2013-06-11 03:32:00,
2013-06-10 23:38:00,70.1,68.9,29.79,SE,124,1.0,1.0,96,0.01,,-RA,1.68,VWS V14.00,2013-06-11 03:38:00,
2013-06-10 23:43:00,70.0,68.8,29.79,SSE,166,1.0,2.0,96,0.02,,-RA,1.69,VWS V14.00,2013-06-11 03:43:00,
2013-06-10 23:48:00,70.0,68.8,29.79,SSE,154,1.0,2.0,96,0.02,,-RA,1.69,VWS V14.00,2013-06-11 03:48:00,
2013-06-10 23:53:00,69.9,68.7,29.79,South,181,1.0,2.0,96,0.02,,-RA,1.69,VWS V14.00,2013-06-11 03:53:00,
2013-06-10 23:58:00,69.9,68.7,29.78,SE,139,2.0,3.0,96,0.02,,-RA,1.69,VWS V14.00,2013-06-11 03:58:00,